Location: ?????
(55.6500°N, 37.2500°E)
Time: 16:49:43
(UTC+00:00)

Cosmos 1975 - Pass Details

Date: 19 May 2025
Orbit: 487 x 505 km, 82.5° (Epoch: 20 June)

Event Time Altitude Azimuth Distance (km) Brightness Sun altitude
Rises 19:33:30 0° 353° (N) 2,581 7.8 -10.6°
Reaches altitude 10° 19:35:45 10° 3° (N) 1,692 6.3 -10.8°
Maximum altitude 19:39:10 34° 70° (ENE) 821 3.6 -11.0°
Enters shadow 19:41:47 15° 131° (SE) 1,398 4.3 -11.1°
